Hourly Data Report for February 28, 2005

TORONTO CITY
ONTARIO

43°40'00.000" N
79°24'00.000" W
112.50 m
6158355
71508
XTO

Download Data

Hourly Data (February 2005)
Hourly Data Report for February 28, 2005
TIME
LST
Temp Definition
°C
Dew Point Definition
°C
Rel Hum Definition
%
Precip. Amount Definition
mm

Wind Dir Definition
10's deg

Wind Spd Definition
km/h
Visibility Definition
km
Stn Press Definition
kPa
Hmdx Definition


Wind Chill Definition


Weather Definition


00:00 -2.1 -6.4 72   LegendMM LegendMM   100.15     LegendNANA
01:00 -1.8 -6.0 73   LegendMM LegendMM   99.99     LegendNANA
02:00 -1.4 -5.9 71   LegendMM LegendMM   99.88     LegendNANA
03:00 -1.2 -5.5 73   LegendMM LegendMM   99.75     LegendNANA
04:00 -1.0 -5.6 71   LegendMM LegendMM   99.71     LegendNANA
05:00 -0.8 -5.8 69   LegendMM LegendMM   99.63     LegendNANA
06:00 -0.9 -5.6 70   LegendMM LegendMM   99.61     LegendNANA
07:00 -0.9 -5.6 70   LegendMM LegendMM   99.53     LegendNANA
08:00 -0.7 -5.0 73   LegendMM LegendMM   99.45     LegendNANA
09:00 0.1 -4.1 73   LegendMM LegendMM   99.37     LegendNANA
10:00 0.8 -3.7 72   LegendMM LegendMM   99.33     LegendNANA
11:00 1.3 -3.8 69   LegendMM LegendMM   99.26     LegendNANA
12:00 1.6 -3.7 68   LegendMM LegendMM   99.24     LegendNANA
13:00 2.2 -3.3 67   LegendMM LegendMM   99.15     LegendNANA
14:00 1.8 -3.1 70   LegendMM LegendMM   99.07     LegendNANA
15:00 1.0 -1.2 85   LegendMM LegendMM   99.01     LegendNANA
16:00 0.1 -0.5 96   LegendMM LegendMM   98.96     LegendNANA
17:00 -0.1 -0.4 98   LegendMM LegendMM   98.89     LegendNANA
18:00 0.4 0.2 99   LegendMM LegendMM   98.84     LegendNANA
19:00 -0.1 -0.2 99   LegendMM LegendMM   98.82     LegendNANA
20:00 -0.1 -0.2 99   LegendMM LegendMM   98.77     LegendNANA
21:00 -0.2 -0.3 99   LegendMM LegendMM   98.71     LegendNANA
22:00 -0.1 -0.2 99   LegendMM LegendMM   98.66     LegendNANA
23:00 -0.5 -0.6 99   LegendMM LegendMM   98.60     LegendNANA

Notes on Data Quality.

Legend

  • E = Estimated
  • M = Missing
  • NA = Not Available*
  • [empty] = Indicates an unobserved value
Date modified: